| time (UTC) | temp F | wind direction | speed knots | gust knots | rain 1hr in | rain 24hr in | rain mn in | humidity % | barometer mb |
| 20260507160100 | 52 | 280 | 0.9 | 5.2 | 0.00 | 0.00 | 0.00 | 52 | 1010.7 |
| 20260507154556 | 53 | 264 | 0.9 | 4.3 | 0.00 | 0.00 | 0.00 | 49 | 1010.8 |
| 20260507153053 | 52 | 232 | 2.6 | 8.7 | 0.00 | 0.00 | 0.00 | 53 | 1010.9 |
| 20260507151551 | 51 | 230 | 1.7 | 7.8 | 0.00 | 0.00 | 0.00 | 56 | 1011.1 |
| 20260507150047 | 50 | 227 | 2.6 | 7.8 | 0.00 | 0.00 | 0.00 | 58 | 1011.1 |
| 20260507144546 | 50 | 264 | 2.6 | 6.1 | 0.00 | 0.00 | 0.00 | 56 | 1011.2 |
| 20260507143046 | 49 | 325 | 0.9 | 5.2 | 0.00 | 0.00 | 0.00 | 61 | 1011.2 |
| 20260507141545 | 49 | 224 | 0.9 | 2.6 | 0.00 | 0.00 | 0.00 | 63 | 1011.3 |
| 20260507140036 | 48 | 217 | 0.0 | 5.2 | 0.00 | 0.01 | 0.00 | 63 | 1011.4 |
| 20260507134545 | 47 | 183 | 2.6 | 4.3 | 0.00 | 0.01 | 0.00 | 64 | 1011.5 |
| 20260507133030 | 46 | 116 | 1.7 | 4.3 | 0.00 | 0.01 | 0.00 | 66 | 1011.6 |
| 20260507131534 | 45 | 113 | 1.7 | 2.6 | 0.00 | 0.01 | 0.00 | 67 | 1011.6 |
| 20260507130022 | 44 | 105 | 0.9 | 3.5 | 0.00 | 0.02 | 0.00 | 70 | 1011.6 |
| 20260507124521 | 43 | 67 | 0.9 | 4.3 | 0.00 | 0.02 | 0.00 | 73 | 1011.6 |
| 20260507123021 | 41 | 89 | 0.9 | 3.5 | 0.00 | 0.02 | 0.00 | 76 | 1011.7 |
| 20260507121518 | 41 | 63 | 1.7 | 3.5 | 0.00 | 0.02 | 0.00 | 79 | 1011.7 |
| 20260507120015 | 40 | 51 | 0.0 | 1.7 | 0.00 | 0.03 | 0.00 | 80 | 1011.8 |
| 20260507114524 | 40 | 30 | 0.0 | 0.9 | 0.00 | 0.03 | 0.00 | 81 | 1011.8 |
| 20260507113014 | 40 | 297 | 0.0 | 0.9 | 0.00 | 0.03 | 0.00 | 82 | 1012.1 |
| 20260507111520 | 39 | 278 | 0.0 | 0.9 | 0.00 | 0.03 | 0.00 | 85 | 1012.1 |
| 20260507110009 | 39 | 17 | 0.0 | 1.7 | 0.00 | 0.03 | 0.00 | 91 | 1011.8 |
| 20260507104507 | 0 | 0.0 | 0.0 | 0.00 | 0.03 | 0.00 | 1011.5 | ||
| 20260507103001 | 0 | 0.0 | 0.0 | 0.00 | 0.03 | 0.00 | 1011.2 | ||
| 20260507101559 | 0 | 0.0 | 0.0 | 0.00 | 0.03 | 0.00 | 1011.1 | ||
| 20260507100049 | 0 | 0.0 | 0.0 | 0.00 | 0.03 | 0.00 | 1010.9 | ||
| 20260507094546 | 0 | 0.0 | 0.0 | 0.00 | 0.03 | 0.00 | 1011.1 | ||
| 20260507093042 | 0 | 0.0 | 0.0 | 0.00 | 0.03 | 0.00 | 1011.2 | ||
| 20260507091557 | 0 | 0.0 | 0.0 | 0.00 | 0.03 | 0.00 | 1011.2 | ||
| 20260507090043 | 0 | 0.0 | 0.0 | 0.00 | 0.03 | 0.00 | 1011.2 | ||
| 20260507084539 | 0 | 0.0 | 0.0 | 0.00 | 0.03 | 0.00 | 1010.9 | ||
| 20260507083036 | 0 | 0.0 | 0.0 | 0.00 | 0.03 | 0.00 | 1011.1 | ||
| 20260507081525 | 0 | 0.0 | 0.0 | 0.00 | 0.03 | 0.00 | 1011.2 | ||
| 20260507080051 | 0 | 0.0 | 0.0 | 0.00 | 0.03 | 0.00 | 1011.2 | ||
| 20260507074548 | 0 | 0.0 | 0.0 | 0.00 | 0.03 | 0.00 | 1011.0 | ||
| 20260507073041 | 0 | 0.0 | 0.0 | 0.00 | 0.03 | 0.00 | 1011.0 | ||
| 20260507071537 | 0 | 0.0 | 0.0 | 0.00 | 0.03 | 0.00 | 1010.9 | ||
| 20260507070031 | 0 | 0.0 | 0.0 | 0.00 | 0.03 | 0.00 | 1010.9 | ||
| 20260507064529 | 0 | 0.0 | 0.0 | 0.00 | 0.03 | 0.00 | 1011.0 | ||
| 20260507063018 | 0 | 0.0 | 0.0 | 0.00 | 0.03 | 0.00 | 1011.2 | ||
| 20260507061515 | 0 | 0.0 | 0.0 | 0.00 | 0.03 | 0.00 | 1011.4 | ||
| 20260507060010 | 0 | 0.0 | 0.0 | 0.00 | 0.03 | 0.00 | 1011.5 | ||
| 20260507054505 | 0 | 0.0 | 0.0 | 0.00 | 0.03 | 0.00 | 1011.4 | ||
| 20260507053005 | 0 | 0.0 | 0.0 | 0.00 | 0.03 | 0.00 | 1011.7 | ||
| 20260507051556 | 0 | 0.0 | 0.0 | 0.00 | 0.03 | 0.00 | 1011.5 | ||
| 20260507050051 | 0 | 0.0 | 0.0 | 0.00 | 0.03 | 0.00 | 1011.8 | ||
| 20260507044548 | 0 | 0.0 | 0.0 | 0.00 | 0.03 | 0.00 | 1012.0 | ||
| 20260507043042 | 0 | 0.0 | 0.0 | 0.00 | 0.03 | 0.00 | 1012.0 | ||
| 20260507041538 | 42 | 184 | 0.0 | 2.6 | 0.00 | 0.03 | 0.00 | 94 | 1011.8 |
| 20260507040035 | 43 | 224 | 0.0 | 0.9 | 0.00 | 0.03 | 0.00 | 93 | 1011.9 |
| 20260507034551 | 43 | 224 | 0.0 | 0.9 | 0.00 | 0.03 | 0.00 | 93 | 1011.8 |
| 20260507033041 | 43 | 226 | 0.0 | 1.7 | 0.00 | 0.03 | 0.00 | 92 | 1011.7 |
| 20260507031532 | 43 | 211 | 0.0 | 2.6 | 0.00 | 0.03 | 0.00 | 92 | 1011.8 |
| 20260507030035 | 43 | 205 | 0.9 | 1.7 | 0.00 | 0.03 | 0.00 | 92 | 1011.8 |
| 20260507024547 | 43 | 213 | 0.0 | 1.7 | 0.00 | 0.03 | 0.00 | 92 | 1011.7 |
| 20260507023031 | 43 | 212 | 0.0 | 0.0 | 0.00 | 0.03 | 0.00 | 91 | 1011.6 |
| 20260507021601 | 43 | 212 | 0.0 | 0.9 | 0.00 | 0.03 | 0.00 | 91 | 1011.7 |
| 20260507020100 | 43 | 209 | 0.0 | 0.9 | 0.00 | 0.03 | 0.00 | 91 | 1011.9 |
| 20260507014559 | 43 | 236 | 0.0 | 1.7 | 0.00 | 0.03 | 0.00 | 91 | 1012.2 |
| 20260507013054 | 43 | 217 | 0.0 | 2.6 | 0.00 | 0.03 | 0.00 | 91 | 1012.2 |
| 20260507011553 | 43 | 184 | 0.0 | 0.0 | 0.00 | 0.03 | 0.00 | 91 | 1011.9 |
| 20260507010108 | 43 | 184 | 0.0 | 0.0 | 0.00 | 0.08 | 0.00 | 90 | 1011.7 |
| 20260507004547 | 43 | 184 | 0.0 | 0.9 | 0.00 | 0.08 | 0.00 | 90 | 1011.5 |
| 20260507003044 | 43 | 314 | 0.0 | 0.0 | 0.00 | 0.08 | 0.00 | 88 | 1011.2 |
| 20260507001551 | 43 | 314 | 0.0 | 0.0 | 0.00 | 0.08 | 0.00 | 88 | 1011.1 |
| 20260507000042 | 43 | 314 | 0.0 | 1.7 | 0.00 | 0.22 | 0.00 | 88 | 1011.0 |
| 20260506234510 | 43 | 300 | 0.9 | 3.5 | 0.00 | 0.22 | 0.00 | 87 | 1010.9 |
| 20260506233009 | 44 | 302 | 0.0 | 3.5 | 0.00 | 0.22 | 0.00 | 88 | 1010.9 |
| 20260506231506 | 44 | 358 | 0.0 | 3.5 | 0.00 | 0.22 | 0.00 | 88 | 1010.9 |
| 20260506230007 | 43 | 11 | 0.0 | 3.5 | 0.00 | 0.32 | 0.00 | 88 | 1010.8 |
| 20260506224601 | 43 | 353 | 0.9 | 4.3 | 0.00 | 0.32 | 0.00 | 88 | 1010.6 |
| 20260506223101 | 42 | 323 | 1.7 | 5.2 | 0.00 | 0.32 | 0.00 | 90 | 1010.3 |
| 20260506221551 | 42 | 359 | 1.7 | 6.1 | 0.00 | 0.32 | 0.00 | 90 | 1010.2 |
| 20260506220052 | 42 | 332 | 2.6 | 6.1 | 0.00 | 0.46 | 0.00 | 92 | 1010.0 |
| 20260506214549 | 42 | 298 | 1.7 | 6.1 | 0.00 | 0.46 | 0.00 | 94 | 1010.0 |
| 20260506213043 | 42 | 38 | 0.9 | 4.3 | 0.00 | 0.46 | 0.00 | 95 | 1009.9 |
| 20260506211509 | 41 | 284 | 1.7 | 7.0 | 0.00 | 0.46 | 0.00 | 95 | 1009.7 |
| 20260506210006 | 41 | 274 | 0.9 | 7.8 | 0.00 | 0.59 | 0.46 | 95 | 1009.4 |
| 20260506204502 | 41 | 287 | 2.6 | 7.8 | 0.00 | 0.59 | 0.46 | 94 | 1009.3 |
| 20260506203058 | 42 | 285 | 1.7 | 5.2 | 0.00 | 0.59 | 0.46 | 94 | 1009.1 |
| 20260506201554 | 44 | 258 | 1.7 | 6.1 | 0.00 | 0.59 | 0.46 | 91 | 1008.9 |
| 20260506200052 | 47 | 289 | 3.5 | 7.8 | 0.00 | 0.59 | 0.46 | 88 | 1008.7 |
| 20260506194548 | 50 | 236 | 2.6 | 4.3 | 0.00 | 0.59 | 0.46 | 85 | 1008.1 |
| 20260506193048 | 51 | 198 | 2.6 | 5.2 | 0.00 | 0.59 | 0.46 | 83 | 1008.1 |
| 20260506191546 | 51 | 184 | 3.5 | 5.2 | 0.00 | 0.59 | 0.46 | 81 | 1008.0 |
| 20260506190044 | 51 | 212 | 0.9 | 3.5 | 0.00 | 0.59 | 0.46 | 82 | 1008.1 |
| 20260506184545 | 50 | 139 | 0.9 | 1.7 | 0.00 | 0.59 | 0.46 | 84 | 1007.9 |
| 20260506183041 | 50 | 132 | 0.0 | 1.7 | 0.00 | 0.59 | 0.46 | 83 | 1008.0 |
| 20260506181539 | 50 | 193 | 0.0 | 3.5 | 0.00 | 0.59 | 0.46 | 84 | 1008.0 |
| 20260506180038 | 50 | 159 | 0.0 | 4.3 | 0.00 | 0.59 | 0.46 | 84 | 1008.0 |
| 20260506174538 | 50 | 101 | 0.0 | 3.5 | 0.00 | 0.59 | 0.46 | 86 | 1007.9 |
| 20260506173035 | 49 | 141 | 0.0 | 0.9 | 0.00 | 0.59 | 0.46 | 88 | 1008.1 |
| 20260506171534 | 48 | 118 | 0.0 | 0.9 | 0.00 | 0.59 | 0.46 | 88 | 1008.4 |
| 20260506170033 | 48 | 219 | 0.0 | 1.7 | 0.00 | 0.59 | 0.46 | 88 | 1008.3 |
| 20260506164533 | 48 | 117 | 0.0 | 0.9 | 0.00 | 0.59 | 0.46 | 88 | 1008.1 |
| 20260506163030 | 48 | 128 | 0.0 | 0.9 | 0.00 | 0.59 | 0.46 | 90 | 1008.1 |
| 20260506161529 | 47 | 85 | 0.0 | 0.9 | 0.00 | 0.59 | 0.46 | 91 | 1008.1 |